Year,Month,Day,Hour,Minute,Value (Times are PST for temperature in C)
2008,08,05,00,00,15.80
2008,08,05,00,01,15.80
2008,08,05,00,02,15.80
2008,08,05,00,03,15.80
2008,08,05,00,04,15.80
2008,08,05,00,05,15.80
2008,08,05,00,06,15.80
2008,08,05,00,07,15.70
2008,08,05,00,08,15.80
2008,08,05,00,09,15.80
2008,08,05,00,10,15.80
2008,08,05,00,11,15.80
2008,08,05,00,12,15.80
2008,08,05,00,13,15.80
2008,08,05,00,14,15.80
2008,08,05,00,15,15.80
2008,08,05,00,16,15.80
2008,08,05,00,17,15.80
2008,08,05,00,18,15.80
2008,08,05,00,19,15.70
2008,08,05,00,20,15.70
2008,08,05,00,21,15.70
2008,08,05,00,22,15.70
2008,08,05,00,23,15.70
2008,08,05,00,24,15.80
2008,08,05,00,25,15.80
2008,08,05,00,26,15.80
2008,08,05,00,27,15.80
2008,08,05,00,28,15.80
2008,08,05,00,29,15.80
2008,08,05,00,30,15.80
2008,08,05,00,31,15.80
2008,08,05,00,32,15.80
2008,08,05,00,33,15.80
2008,08,05,00,34,15.80
2008,08,05,00,35,15.80
2008,08,05,00,36,15.80
2008,08,05,00,37,15.80
2008,08,05,00,38,15.70
2008,08,05,00,39,15.70
2008,08,05,00,40,15.60
2008,08,05,00,41,15.60
2008,08,05,00,42,15.50
2008,08,05,00,43,15.50
2008,08,05,00,44,15.50
2008,08,05,00,45,15.40
2008,08,05,00,46,15.40
2008,08,05,00,47,15.30
2008,08,05,00,48,15.20
2008,08,05,00,49,15.20
2008,08,05,00,50,15.10
2008,08,05,00,51,15.00
2008,08,05,00,52,15.00
2008,08,05,00,53,15.00
2008,08,05,00,54,15.00
2008,08,05,00,55,15.00
2008,08,05,00,56,15.00
2008,08,05,00,57,15.00
2008,08,05,00,58,15.00
2008,08,05,00,59,15.00
2008,08,05,01,00,15.00
2008,08,05,01,01,15.00
2008,08,05,01,02,15.00
2008,08,05,01,03,15.10
2008,08,05,01,04,15.10
2008,08,05,01,05,15.10
2008,08,05,01,06,15.10
2008,08,05,01,07,15.00
2008,08,05,01,08,15.00
2008,08,05,01,09,15.00
2008,08,05,01,10,15.00
2008,08,05,01,11,15.00
2008,08,05,01,12,15.00
2008,08,05,01,13,15.00
2008,08,05,01,14,15.00
2008,08,05,01,15,15.10
2008,08,05,01,16,15.10
2008,08,05,01,17,15.20
2008,08,05,01,18,15.20
2008,08,05,01,19,15.30
2008,08,05,01,20,15.30
2008,08,05,01,21,15.40
2008,08,05,01,22,15.40
2008,08,05,01,23,15.50
2008,08,05,01,24,15.60
2008,08,05,01,25,15.60
2008,08,05,01,26,15.60
2008,08,05,01,27,15.60
2008,08,05,01,28,15.60
2008,08,05,01,29,15.60
2008,08,05,01,30,15.70
2008,08,05,01,31,15.80
2008,08,05,01,32,15.80
2008,08,05,01,33,15.90
2008,08,05,01,34,15.90
2008,08,05,01,35,15.90
2008,08,05,01,36,15.90
2008,08,05,01,37,15.90
2008,08,05,01,38,16.00
2008,08,05,01,39,16.00
2008,08,05,01,40,16.10
2008,08,05,01,41,16.10
2008,08,05,01,42,16.20
2008,08,05,01,43,16.20
2008,08,05,01,44,16.30
2008,08,05,01,45,16.40
2008,08,05,01,46,16.40
2008,08,05,01,47,16.50
2008,08,05,01,48,16.60
2008,08,05,01,49,16.60
2008,08,05,01,50,16.60
2008,08,05,01,51,16.60
2008,08,05,01,52,16.60
2008,08,05,01,53,16.70
2008,08,05,01,54,16.70
2008,08,05,01,55,16.70
2008,08,05,01,56,16.70
2008,08,05,01,57,16.70
2008,08,05,01,58,16.70
2008,08,05,01,59,16.70
2008,08,05,02,00,16.80
2008,08,05,02,01,16.80
2008,08,05,02,02,16.90
2008,08,05,02,03,16.90
2008,08,05,02,04,16.90
2008,08,05,02,05,16.90
2008,08,05,02,06,16.90
2008,08,05,02,07,17.00
2008,08,05,02,08,17.00
2008,08,05,02,09,17.10
2008,08,05,02,10,17.20
2008,08,05,02,11,17.30
2008,08,05,02,12,17.30
2008,08,05,02,13,17.30
2008,08,05,02,14,17.30
2008,08,05,02,15,17.30
2008,08,05,02,16,17.30
2008,08,05,02,17,17.30
2008,08,05,02,18,17.20
2008,08,05,02,19,17.20
2008,08,05,02,20,17.20
2008,08,05,02,21,17.20
2008,08,05,02,22,17.20
2008,08,05,02,23,17.20
2008,08,05,02,24,17.20
2008,08,05,02,25,17.20
2008,08,05,02,26,17.30
2008,08,05,02,27,17.30
2008,08,05,02,28,17.30
2008,08,05,02,29,17.40
2008,08,05,02,30,17.40
2008,08,05,02,31,17.40
2008,08,05,02,32,17.50
2008,08,05,02,33,17.50
2008,08,05,02,34,17.50
2008,08,05,02,35,17.50
2008,08,05,02,36,17.50
2008,08,05,02,37,17.60
2008,08,05,02,38,17.60
2008,08,05,02,39,17.60
2008,08,05,02,40,17.60
2008,08,05,02,41,17.60
2008,08,05,02,42,17.60
2008,08,05,02,43,17.60
2008,08,05,02,44,17.60
2008,08,05,02,45,17.60
2008,08,05,02,46,17.60
2008,08,05,02,47,17.60
2008,08,05,02,48,17.60
2008,08,05,02,49,17.60
2008,08,05,02,50,17.60
2008,08,05,02,51,17.60
2008,08,05,02,52,17.50
2008,08,05,02,53,17.50
2008,08,05,02,54,17.50
2008,08,05,02,55,17.40
2008,08,05,02,56,17.40
2008,08,05,02,57,17.40
2008,08,05,02,58,17.40
2008,08,05,02,59,17.40
2008,08,05,03,00,17.40
2008,08,05,03,01,17.30
2008,08,05,03,02,17.30
2008,08,05,03,03,17.30
2008,08,05,03,04,17.30
2008,08,05,03,05,17.20
2008,08,05,03,06,17.20
2008,08,05,03,07,17.20
2008,08,05,03,08,17.20
2008,08,05,03,09,17.10
2008,08,05,03,10,17.10
2008,08,05,03,11,17.10
2008,08,05,03,12,17.00
2008,08,05,03,13,17.00
2008,08,05,03,14,16.90
2008,08,05,03,15,16.90
2008,08,05,03,16,16.90
2008,08,05,03,17,16.90
2008,08,05,03,18,16.90
2008,08,05,03,19,16.80
2008,08,05,03,20,16.80
2008,08,05,03,21,16.80
2008,08,05,03,22,16.80
2008,08,05,03,23,16.80
2008,08,05,03,24,16.90
2008,08,05,03,25,16.90
2008,08,05,03,26,16.90
2008,08,05,03,27,16.90
2008,08,05,03,28,16.90
2008,08,05,03,29,16.90
2008,08,05,03,30,16.90
2008,08,05,03,31,16.90
2008,08,05,03,32,16.90
2008,08,05,03,33,16.90
2008,08,05,03,34,16.90
2008,08,05,03,35,16.90
2008,08,05,03,36,16.90
2008,08,05,03,37,16.90
2008,08,05,03,38,16.80
2008,08,05,03,39,16.80
2008,08,05,03,40,16.80
2008,08,05,03,41,16.70
2008,08,05,03,42,16.70
2008,08,05,03,43,16.70
2008,08,05,03,44,16.70
2008,08,05,03,45,16.60
2008,08,05,03,46,16.60
2008,08,05,03,47,16.60
2008,08,05,03,48,16.60
2008,08,05,03,49,16.50
2008,08,05,03,50,16.50
2008,08,05,03,51,16.40
2008,08,05,03,52,16.40
2008,08,05,03,53,16.40
2008,08,05,03,54,16.40
2008,08,05,03,55,16.40
2008,08,05,03,56,16.40
2008,08,05,03,57,16.40
2008,08,05,03,58,16.30
2008,08,05,03,59,16.30
2008,08,05,04,00,16.30
2008,08,05,04,01,16.30
2008,08,05,04,02,16.30
2008,08,05,04,03,16.30
2008,08,05,04,04,16.30
2008,08,05,04,05,16.30
2008,08,05,04,06,16.30
2008,08,05,04,07,16.30
2008,08,05,04,08,16.30
2008,08,05,04,09,16.30
2008,08,05,04,10,16.30
2008,08,05,04,11,16.30
2008,08,05,04,12,16.30
2008,08,05,04,13,16.30
2008,08,05,04,14,16.30
2008,08,05,04,15,16.30
2008,08,05,04,16,16.30
2008,08,05,04,17,16.20
2008,08,05,04,18,16.20
2008,08,05,04,19,16.20
2008,08,05,04,20,16.20
2008,08,05,04,21,16.20
2008,08,05,04,22,16.20
2008,08,05,04,23,16.10
2008,08,05,04,24,16.10
2008,08,05,04,25,16.10
2008,08,05,04,26,16.10
2008,08,05,04,27,16.00
2008,08,05,04,28,16.00
2008,08,05,04,29,15.90
2008,08,05,04,30,15.90
2008,08,05,04,31,15.90
2008,08,05,04,32,15.80
2008,08,05,04,33,15.70
2008,08,05,04,34,15.60
2008,08,05,04,35,15.50
2008,08,05,04,36,15.50
2008,08,05,04,37,15.40
2008,08,05,04,38,15.40
2008,08,05,04,39,15.30
2008,08,05,04,40,15.30
2008,08,05,04,41,15.30
2008,08,05,04,42,15.30
2008,08,05,04,43,15.30
2008,08,05,04,44,15.30
2008,08,05,04,45,15.30
2008,08,05,04,46,15.20
2008,08,05,04,47,15.20
2008,08,05,04,48,15.10
2008,08,05,04,49,15.10
2008,08,05,04,50,15.10
2008,08,05,04,51,15.10
2008,08,05,04,52,15.10
2008,08,05,04,53,15.10
2008,08,05,04,54,15.10
2008,08,05,04,55,15.10
2008,08,05,04,56,15.10
2008,08,05,04,57,15.00
2008,08,05,04,58,15.00
2008,08,05,04,59,15.00
2008,08,05,05,00,15.00
2008,08,05,05,01,15.00
2008,08,05,05,02,15.00
2008,08,05,05,03,15.00
2008,08,05,05,04,15.00
2008,08,05,05,05,15.00
2008,08,05,05,06,14.90
2008,08,05,05,07,14.80
2008,08,05,05,08,14.80
2008,08,05,05,09,14.70
2008,08,05,05,10,14.70
2008,08,05,05,11,14.70
2008,08,05,05,12,14.60
2008,08,05,05,13,14.60
2008,08,05,05,14,14.70
2008,08,05,05,15,14.70
2008,08,05,05,16,14.80
2008,08,05,05,17,14.80
2008,08,05,05,18,15.00
2008,08,05,05,19,15.00
2008,08,05,05,20,15.00
2008,08,05,05,21,15.00
2008,08,05,05,22,15.00
2008,08,05,05,23,15.00
2008,08,05,05,24,15.00
2008,08,05,05,25,15.00
2008,08,05,05,26,15.00
2008,08,05,05,27,15.00
2008,08,05,05,28,15.00
2008,08,05,05,29,15.00
2008,08,05,05,30,15.00
2008,08,05,05,31,14.90
2008,08,05,05,32,14.90
2008,08,05,05,33,14.90
2008,08,05,05,34,15.00
2008,08,05,05,35,15.00
2008,08,05,05,36,15.00
2008,08,05,05,37,15.00
2008,08,05,05,38,14.90
2008,08,05,05,39,14.90
2008,08,05,05,40,15.00
2008,08,05,05,41,15.00
2008,08,05,05,42,15.00
2008,08,05,05,43,15.00
2008,08,05,05,44,15.00
2008,08,05,05,45,15.00
2008,08,05,05,46,15.00
2008,08,05,05,47,15.00
2008,08,05,05,48,15.10
2008,08,05,05,49,15.20
2008,08,05,05,50,15.20
2008,08,05,05,51,15.20
2008,08,05,05,52,15.20
2008,08,05,05,53,15.20
2008,08,05,05,54,15.20
2008,08,05,05,55,15.20
2008,08,05,05,56,15.20
2008,08,05,05,57,15.20
2008,08,05,05,58,15.20
2008,08,05,05,59,15.20
2008,08,05,06,00,15.20
2008,08,05,06,01,15.20
2008,08,05,06,02,15.10
2008,08,05,06,03,15.10
2008,08,05,06,04,15.00
2008,08,05,06,05,15.00
2008,08,05,06,06,15.00
2008,08,05,06,07,15.00
2008,08,05,06,08,15.00
2008,08,05,06,09,14.90
2008,08,05,06,10,14.90
2008,08,05,06,11,14.80
2008,08,05,06,12,14.80
2008,08,05,06,13,14.80
2008,08,05,06,14,14.80
2008,08,05,06,15,14.80
2008,08,05,06,16,14.70
2008,08,05,06,17,14.70
2008,08,05,06,18,14.70
2008,08,05,06,19,14.70
2008,08,05,06,20,14.70
2008,08,05,06,21,14.70
2008,08,05,06,22,14.80
2008,08,05,06,23,14.80
2008,08,05,06,24,14.80
2008,08,05,06,25,14.80
2008,08,05,06,26,14.80
2008,08,05,06,27,14.80
2008,08,05,06,28,14.90
2008,08,05,06,29,14.90
2008,08,05,06,30,15.00
2008,08,05,06,31,15.00
2008,08,05,06,32,15.00
2008,08,05,06,33,15.00
2008,08,05,06,34,15.10
2008,08,05,06,35,15.20
2008,08,05,06,36,15.30
2008,08,05,06,37,15.40
2008,08,05,06,38,15.40
2008,08,05,06,39,15.50
2008,08,05,06,40,15.60
2008,08,05,06,41,15.60
2008,08,05,06,42,15.60
2008,08,05,06,43,15.70
2008,08,05,06,44,15.70
2008,08,05,06,45,15.70
2008,08,05,06,46,15.70
2008,08,05,06,47,15.70
2008,08,05,06,48,15.70
2008,08,05,06,49,15.70
2008,08,05,06,50,15.60
2008,08,05,06,51,15.60
2008,08,05,06,52,15.60
2008,08,05,06,53,15.60
2008,08,05,06,54,15.60
2008,08,05,06,55,15.70
2008,08,05,06,56,15.70
2008,08,05,06,57,15.70
2008,08,05,06,58,15.80
2008,08,05,06,59,15.80
2008,08,05,07,00,15.90
2008,08,05,07,01,16.10
2008,08,05,07,02,16.20
2008,08,05,07,03,16.30
2008,08,05,07,04,16.50
2008,08,05,07,05,16.60
2008,08,05,07,06,16.70
2008,08,05,07,07,16.90
2008,08,05,07,08,17.00
2008,08,05,07,09,17.10
2008,08,05,07,10,17.20
2008,08,05,07,11,17.20
2008,08,05,07,12,17.30
2008,08,05,07,13,17.40
2008,08,05,07,14,17.40
2008,08,05,07,15,17.50
2008,08,05,07,16,17.60
2008,08,05,07,17,17.60
2008,08,05,07,18,17.70
2008,08,05,07,19,17.80
2008,08,05,07,20,17.90
2008,08,05,07,21,18.00
2008,08,05,07,22,18.00
2008,08,05,07,23,18.10
2008,08,05,07,24,18.30
2008,08,05,07,25,18.40
2008,08,05,07,26,18.50
2008,08,05,07,27,18.60
2008,08,05,07,28,18.60
2008,08,05,07,29,18.70
2008,08,05,07,30,18.70
2008,08,05,07,31,18.80
2008,08,05,07,32,18.80
2008,08,05,07,33,18.80
2008,08,05,07,34,18.80
2008,08,05,07,35,18.80
2008,08,05,07,36,18.80
2008,08,05,07,37,18.80
2008,08,05,07,38,18.80
2008,08,05,07,39,18.90
2008,08,05,07,40,18.90
2008,08,05,07,41,18.90
2008,08,05,07,42,18.90
2008,08,05,07,43,18.90
2008,08,05,07,44,18.90
2008,08,05,07,45,18.90
2008,08,05,07,46,18.90
2008,08,05,07,47,18.90
2008,08,05,07,48,18.90
2008,08,05,07,49,18.90
2008,08,05,07,50,18.90
2008,08,05,07,51,19.00
2008,08,05,07,52,19.00
2008,08,05,07,53,19.00
2008,08,05,07,54,19.00
2008,08,05,07,55,19.00
2008,08,05,07,56,19.00
2008,08,05,07,57,19.00
2008,08,05,07,58,19.00
2008,08,05,07,59,19.00
2008,08,05,08,00,19.00
2008,08,05,08,01,19.00
2008,08,05,08,02,19.00
2008,08,05,08,03,19.00
2008,08,05,08,04,19.00
2008,08,05,08,05,19.00
2008,08,05,08,06,19.00
2008,08,05,08,07,19.00
2008,08,05,08,08,19.00
2008,08,05,08,09,19.10
2008,08,05,08,10,19.10
2008,08,05,08,11,19.10
2008,08,05,08,12,19.10
2008,08,05,08,13,19.10
2008,08,05,08,14,19.10
2008,08,05,08,15,19.10
2008,08,05,08,16,19.10
2008,08,05,08,17,19.10
2008,08,05,08,18,19.10
2008,08,05,08,19,19.10
2008,08,05,08,20,19.20
2008,08,05,08,21,19.20
2008,08,05,08,22,19.20
2008,08,05,08,23,19.30
2008,08,05,08,24,19.30
2008,08,05,08,25,19.30
2008,08,05,08,26,19.30
2008,08,05,08,27,19.30
2008,08,05,08,28,19.40
2008,08,05,08,29,19.40
2008,08,05,08,30,19.40
2008,08,05,08,31,19.40
2008,08,05,08,32,19.40
2008,08,05,08,33,19.40
2008,08,05,08,34,19.40
2008,08,05,08,35,19.50
2008,08,05,08,36,19.40
2008,08,05,08,37,19.40
2008,08,05,08,38,19.40
2008,08,05,08,39,19.40
2008,08,05,08,40,19.40
2008,08,05,08,41,19.40
2008,08,05,08,42,19.40
2008,08,05,08,43,19.40
2008,08,05,08,44,19.40
2008,08,05,08,45,19.40
2008,08,05,08,46,19.30
2008,08,05,08,47,19.30
2008,08,05,08,48,19.40
2008,08,05,08,49,19.40
2008,08,05,08,50,19.50
2008,08,05,08,51,19.60
2008,08,05,08,52,19.60
2008,08,05,08,53,19.70
2008,08,05,08,54,19.80
2008,08,05,08,55,19.80
2008,08,05,08,56,19.90
2008,08,05,08,57,19.90
2008,08,05,08,58,19.90
2008,08,05,08,59,19.90
2008,08,05,09,00,19.90
2008,08,05,09,01,19.90
2008,08,05,09,02,19.90
2008,08,05,09,03,19.90
2008,08,05,09,04,19.80
2008,08,05,09,05,19.80
2008,08,05,09,06,19.70
2008,08,05,09,07,19.70
2008,08,05,09,08,19.70
2008,08,05,09,09,19.60
2008,08,05,09,10,19.60
2008,08,05,09,11,19.60
2008,08,05,09,12,19.60
2008,08,05,09,13,19.60
2008,08,05,09,14,19.60
2008,08,05,09,15,19.60
2008,08,05,09,16,19.60
2008,08,05,09,17,19.60
2008,08,05,09,18,19.70
2008,08,05,09,19,19.70
2008,08,05,09,20,19.70
2008,08,05,09,21,19.70
2008,08,05,09,22,19.70
2008,08,05,09,23,19.70
2008,08,05,09,24,19.70
2008,08,05,09,25,19.70
2008,08,05,09,26,19.60
2008,08,05,09,27,19.60
2008,08,05,09,28,19.60
2008,08,05,09,29,19.60
2008,08,05,09,30,19.60
2008,08,05,09,31,19.60
2008,08,05,09,32,19.60
2008,08,05,09,33,19.60
2008,08,05,09,34,19.50
2008,08,05,09,35,19.50
2008,08,05,09,36,19.50
2008,08,05,09,37,19.60
2008,08,05,09,38,19.60
2008,08,05,09,39,19.70
2008,08,05,09,40,19.80
2008,08,05,09,41,19.90
2008,08,05,09,42,20.00
2008,08,05,09,43,20.00
2008,08,05,09,44,20.00
2008,08,05,09,45,20.10
2008,08,05,09,46,20.10
2008,08,05,09,47,20.10
2008,08,05,09,48,20.10
2008,08,05,09,49,20.10
2008,08,05,09,50,20.00
2008,08,05,09,51,20.00
2008,08,05,09,52,20.00
2008,08,05,09,53,20.00
2008,08,05,09,54,20.00
2008,08,05,09,55,20.10
2008,08,05,09,56,20.10
2008,08,05,09,57,20.10
2008,08,05,09,58,20.20
2008,08,05,09,59,20.20
2008,08,05,10,00,20.20
2008,08,05,10,01,20.30
2008,08,05,10,02,20.30
2008,08,05,10,03,20.30
2008,08,05,10,04,20.40
2008,08,05,10,05,20.40
2008,08,05,10,06,20.40
2008,08,05,10,07,20.40
2008,08,05,10,08,20.50
2008,08,05,10,09,20.50
2008,08,05,10,10,20.50
2008,08,05,10,11,20.60
2008,08,05,10,12,20.60
2008,08,05,10,13,20.60
2008,08,05,10,14,20.60
2008,08,05,10,15,20.60
2008,08,05,10,16,20.60
2008,08,05,10,17,20.60
2008,08,05,10,18,20.60
2008,08,05,10,19,20.60
2008,08,05,10,20,20.60
2008,08,05,10,21,20.70
2008,08,05,10,22,20.70
2008,08,05,10,23,20.70
2008,08,05,10,24,20.70
2008,08,05,10,25,20.70
2008,08,05,10,26,20.80
2008,08,05,10,27,20.80
2008,08,05,10,28,20.90
2008,08,05,10,29,20.90
2008,08,05,10,30,20.90
2008,08,05,10,31,21.00
2008,08,05,10,32,21.00
2008,08,05,10,33,21.10
2008,08,05,10,34,21.30
2008,08,05,10,35,21.40
2008,08,05,10,36,21.50
2008,08,05,10,37,21.60
2008,08,05,10,38,21.70
2008,08,05,10,39,21.80
2008,08,05,10,40,21.80
2008,08,05,10,41,21.90
2008,08,05,10,42,22.00
2008,08,05,10,43,22.00
2008,08,05,10,44,22.00
2008,08,05,10,45,21.90
2008,08,05,10,46,21.80
2008,08,05,10,47,21.80
2008,08,05,10,48,21.70
2008,08,05,10,49,21.70
2008,08,05,10,50,21.70
2008,08,05,10,51,21.70
2008,08,05,10,52,21.70
2008,08,05,10,53,21.80
2008,08,05,10,54,21.80
2008,08,05,10,55,21.80
2008,08,05,10,56,21.90
2008,08,05,10,57,22.00
2008,08,05,10,58,22.10
2008,08,05,10,59,22.10
2008,08,05,11,00,22.20
2008,08,05,11,01,22.20
2008,08,05,11,02,22.20
2008,08,05,11,03,22.20
2008,08,05,11,04,22.20
2008,08,05,11,05,22.20
2008,08,05,11,06,22.20
2008,08,05,11,07,22.20
2008,08,05,11,08,22.20
2008,08,05,11,09,22.20
2008,08,05,11,10,22.30
2008,08,05,11,11,22.40
2008,08,05,11,12,22.50
2008,08,05,11,13,22.60
2008,08,05,11,14,22.70
2008,08,05,11,15,22.80
2008,08,05,11,16,22.80
2008,08,05,11,17,22.80
2008,08,05,11,18,22.80
2008,08,05,11,19,22.70
2008,08,05,11,20,22.70
2008,08,05,11,21,22.70
2008,08,05,11,22,22.70
2008,08,05,11,23,22.60
2008,08,05,11,24,22.60
2008,08,05,11,25,22.70
2008,08,05,11,26,22.80
2008,08,05,11,27,22.90
2008,08,05,11,28,22.90
2008,08,05,11,29,22.90
2008,08,05,11,30,22.80
2008,08,05,11,31,22.80
2008,08,05,11,32,22.70
2008,08,05,11,33,22.60
2008,08,05,11,34,22.60
2008,08,05,11,35,22.50
2008,08,05,11,36,22.50
2008,08,05,11,37,22.50
2008,08,05,11,38,22.50
2008,08,05,11,39,22.50
2008,08,05,11,40,22.50
2008,08,05,11,41,22.60
2008,08,05,11,42,22.70
2008,08,05,11,43,22.70
2008,08,05,11,44,22.90
2008,08,05,11,45,23.00
2008,08,05,11,46,23.10
2008,08,05,11,47,23.20
2008,08,05,11,48,23.20
2008,08,05,11,49,23.20
2008,08,05,11,50,23.20
2008,08,05,11,51,23.20
2008,08,05,11,52,23.20
2008,08,05,11,53,23.30
2008,08,05,11,54,23.50
2008,08,05,11,55,23.60
2008,08,05,11,56,23.60
2008,08,05,11,57,23.60
2008,08,05,11,58,23.60
2008,08,05,11,59,23.60
2008,08,05,12,00,23.50
2008,08,05,12,01,23.40
2008,08,05,12,02,23.30
2008,08,05,12,03,23.30
2008,08,05,12,04,23.30
2008,08,05,12,05,23.30
2008,08,05,12,06,23.20
2008,08,05,12,07,23.20
2008,08,05,12,08,23.20
2008,08,05,12,09,23.20
2008,08,05,12,10,23.20
2008,08,05,12,11,23.20
2008,08,05,12,12,23.20
2008,08,05,12,13,23.20
2008,08,05,12,14,23.20
2008,08,05,12,15,23.20
2008,08,05,12,16,23.20
2008,08,05,12,17,23.20
2008,08,05,12,18,23.30
2008,08,05,12,19,23.30
2008,08,05,12,20,23.30
2008,08,05,12,21,23.30
2008,08,05,12,22,23.30
2008,08,05,12,23,23.40
2008,08,05,12,24,23.40
2008,08,05,12,25,23.40
2008,08,05,12,26,23.40
2008,08,05,12,27,23.40
2008,08,05,12,28,23.50
2008,08,05,12,29,23.50
2008,08,05,12,30,23.60
2008,08,05,12,31,23.70
2008,08,05,12,32,23.80
2008,08,05,12,33,23.90
2008,08,05,12,34,24.00
2008,08,05,12,35,24.10
2008,08,05,12,36,24.20
2008,08,05,12,37,24.20
2008,08,05,12,38,24.30
2008,08,05,12,39,24.20
2008,08,05,12,40,24.10
2008,08,05,12,41,24.00
2008,08,05,12,42,23.90
2008,08,05,12,43,23.80
2008,08,05,12,44,23.80
2008,08,05,12,45,23.80
2008,08,05,12,46,23.80
2008,08,05,12,47,23.80
2008,08,05,12,48,23.80
2008,08,05,12,49,23.90
2008,08,05,12,50,24.00
2008,08,05,12,51,24.00
2008,08,05,12,52,24.10
2008,08,05,12,53,24.10
2008,08,05,12,54,24.10
2008,08,05,12,55,24.10
2008,08,05,12,56,24.00
2008,08,05,12,57,23.90
2008,08,05,12,58,23.90
2008,08,05,12,59,23.90
2008,08,05,13,00,24.00
2008,08,05,13,01,24.10
2008,08,05,13,02,24.10
2008,08,05,13,03,24.20
2008,08,05,13,04,24.30
2008,08,05,13,05,24.30
2008,08,05,13,06,24.30
2008,08,05,13,07,24.30
2008,08,05,13,08,24.30
2008,08,05,13,09,24.30
2008,08,05,13,10,24.40
2008,08,05,13,11,24.40
2008,08,05,13,12,24.40
2008,08,05,13,13,24.40
2008,08,05,13,14,24.40
2008,08,05,13,15,24.40
2008,08,05,13,16,24.50
2008,08,05,13,17,24.50
2008,08,05,13,18,24.60
2008,08,05,13,19,24.60
2008,08,05,13,20,24.60
2008,08,05,13,21,24.70
2008,08,05,13,22,24.70
2008,08,05,13,23,24.80
2008,08,05,13,24,24.80
2008,08,05,13,25,24.80
2008,08,05,13,26,24.90
2008,08,05,13,27,25.00
2008,08,05,13,28,25.00
2008,08,05,13,29,25.10
2008,08,05,13,30,25.20
2008,08,05,13,31,25.30
2008,08,05,13,32,25.40
2008,08,05,13,33,25.50
2008,08,05,13,34,25.60
2008,08,05,13,35,25.60
2008,08,05,13,36,25.60
2008,08,05,13,37,25.60
2008,08,05,13,38,25.60
2008,08,05,13,39,25.60
2008,08,05,13,40,25.40
2008,08,05,13,41,25.30
2008,08,05,13,42,25.20
2008,08,05,13,43,25.20
2008,08,05,13,44,25.10
2008,08,05,13,45,25.10
2008,08,05,13,46,25.10
2008,08,05,13,47,25.20
2008,08,05,13,48,25.20
2008,08,05,13,49,25.20
2008,08,05,13,50,25.30
2008,08,05,13,51,25.40
2008,08,05,13,52,25.40
2008,08,05,13,53,25.50
2008,08,05,13,54,25.50
2008,08,05,13,55,25.60
2008,08,05,13,56,25.60
2008,08,05,13,57,25.70
2008,08,05,13,58,25.80
2008,08,05,13,59,25.90
2008,08,05,14,00,25.90
2008,08,05,14,01,25.90
2008,08,05,14,02,25.90
2008,08,05,14,03,25.90
2008,08,05,14,04,25.90
2008,08,05,14,05,26.00
2008,08,05,14,06,26.10
2008,08,05,14,07,26.10
2008,08,05,14,08,26.10
2008,08,05,14,09,26.10
2008,08,05,14,10,26.20
2008,08,05,14,11,26.20
2008,08,05,14,12,26.20
2008,08,05,14,13,26.20
2008,08,05,14,14,26.10
2008,08,05,14,15,26.20
2008,08,05,14,16,26.20
2008,08,05,14,17,26.00
2008,08,05,14,18,25.90
2008,08,05,14,19,25.80
2008,08,05,14,20,25.80
2008,08,05,14,21,25.70
2008,08,05,14,22,25.60
2008,08,05,14,23,25.60
2008,08,05,14,24,25.50
2008,08,05,14,25,25.50
2008,08,05,14,26,25.40
2008,08,05,14,27,25.30
2008,08,05,14,28,25.20
2008,08,05,14,29,25.20
2008,08,05,14,30,25.20
2008,08,05,14,31,25.20
2008,08,05,14,32,25.20
2008,08,05,14,33,25.30
2008,08,05,14,34,25.30
2008,08,05,14,35,25.30
2008,08,05,14,36,25.30
2008,08,05,14,37,25.30
2008,08,05,14,38,25.40
2008,08,05,14,39,25.40
2008,08,05,14,40,25.40
2008,08,05,14,41,25.30
2008,08,05,14,42,25.30
2008,08,05,14,43,25.30
2008,08,05,14,44,25.30
2008,08,05,14,45,25.20
2008,08,05,14,46,25.20
2008,08,05,14,47,25.10
2008,08,05,14,48,25.20
2008,08,05,14,49,25.10
2008,08,05,14,50,25.10
2008,08,05,14,51,25.10
2008,08,05,14,52,25.10
2008,08,05,14,53,25.10
2008,08,05,14,54,25.00
2008,08,05,14,55,24.90
2008,08,05,14,56,24.70
2008,08,05,14,57,24.60
2008,08,05,14,58,24.60
2008,08,05,14,59,24.60
2008,08,05,15,00,24.60
2008,08,05,15,01,24.50
2008,08,05,15,02,24.50
2008,08,05,15,03,24.60
2008,08,05,15,04,24.60
2008,08,05,15,05,24.70
2008,08,05,15,06,24.80
2008,08,05,15,07,24.80
2008,08,05,15,08,24.80
2008,08,05,15,09,24.90
2008,08,05,15,10,25.00
2008,08,05,15,11,25.10
2008,08,05,15,12,25.20
2008,08,05,15,13,25.30
2008,08,05,15,14,25.40
2008,08,05,15,15,25.50
2008,08,05,15,16,25.60
2008,08,05,15,17,25.70
2008,08,05,15,18,25.80
2008,08,05,15,19,25.90
2008,08,05,15,20,25.90
2008,08,05,15,21,25.90
2008,08,05,15,22,25.90
2008,08,05,15,23,25.90
2008,08,05,15,24,25.90
2008,08,05,15,25,25.90
2008,08,05,15,26,25.90
2008,08,05,15,27,25.80
2008,08,05,15,28,25.80
2008,08,05,15,29,25.80
2008,08,05,15,30,25.90
2008,08,05,15,31,26.00
2008,08,05,15,32,26.10
2008,08,05,15,33,26.20
2008,08,05,15,34,26.40
2008,08,05,15,35,26.50
2008,08,05,15,36,26.60
2008,08,05,15,37,26.60
2008,08,05,15,38,26.60
2008,08,05,15,39,26.60
2008,08,05,15,40,26.70
2008,08,05,15,41,26.70
2008,08,05,15,42,26.80
2008,08,05,15,43,26.90
2008,08,05,15,44,26.90
2008,08,05,15,45,26.90
2008,08,05,15,46,26.90
2008,08,05,15,47,26.90
2008,08,05,15,48,26.90
2008,08,05,15,49,26.90
2008,08,05,15,50,26.90
2008,08,05,15,51,26.90
2008,08,05,15,52,26.90
2008,08,05,15,53,26.90
2008,08,05,15,54,27.00
2008,08,05,15,55,27.10
2008,08,05,15,56,27.10
2008,08,05,15,57,27.20
2008,08,05,15,58,27.20
2008,08,05,15,59,27.30
2008,08,05,16,00,27.30
2008,08,05,16,01,27.40
2008,08,05,16,02,27.40
2008,08,05,16,03,27.40
2008,08,05,16,04,27.40
2008,08,05,16,05,27.40
2008,08,05,16,06,27.40
2008,08,05,16,07,27.40
2008,08,05,16,08,27.30
2008,08,05,16,09,27.30
2008,08,05,16,10,27.30
2008,08,05,16,11,27.30
2008,08,05,16,12,27.30
2008,08,05,16,13,27.30
2008,08,05,16,14,27.40
2008,08,05,16,15,27.40
2008,08,05,16,16,27.40
2008,08,05,16,17,27.50
2008,08,05,16,18,27.50
2008,08,05,16,19,27.50
2008,08,05,16,20,27.50
2008,08,05,16,21,27.50
2008,08,05,16,22,27.40
2008,08,05,16,23,27.30
2008,08,05,16,24,27.20
2008,08,05,16,25,27.20
2008,08,05,16,26,27.20
2008,08,05,16,27,27.20
2008,08,05,16,28,27.20
2008,08,05,16,29,27.20
2008,08,05,16,30,27.10
2008,08,05,16,31,27.10
2008,08,05,16,32,27.00
2008,08,05,16,33,27.10
2008,08,05,16,34,27.00
2008,08,05,16,35,27.10
2008,08,05,16,36,27.20
2008,08,05,16,37,27.20
2008,08,05,16,38,27.20
2008,08,05,16,39,27.20
2008,08,05,16,40,27.20
2008,08,05,16,41,27.10
2008,08,05,16,42,27.20
2008,08,05,16,43,27.20
2008,08,05,16,44,27.30
2008,08,05,16,45,27.40
2008,08,05,16,46,27.50
2008,08,05,16,47,27.50
2008,08,05,16,48,27.60
2008,08,05,16,49,27.70
2008,08,05,16,50,27.70
2008,08,05,16,51,27.80
2008,08,05,16,52,27.80
2008,08,05,16,53,27.80
2008,08,05,16,54,27.90
2008,08,05,16,55,28.00
2008,08,05,16,56,28.10
2008,08,05,16,57,28.30
2008,08,05,16,58,28.30
2008,08,05,16,59,28.40
2008,08,05,17,00,28.30
2008,08,05,17,01,28.40
2008,08,05,17,02,28.40
2008,08,05,17,03,28.40
2008,08,05,17,04,28.40
2008,08,05,17,05,28.40
2008,08,05,17,06,28.40
2008,08,05,17,07,28.30
2008,08,05,17,08,28.40
2008,08,05,17,09,28.40
2008,08,05,17,10,28.50
2008,08,05,17,11,28.60
2008,08,05,17,12,28.60
2008,08,05,17,13,28.50
2008,08,05,17,14,28.50
2008,08,05,17,15,28.50
2008,08,05,17,16,28.50
2008,08,05,17,17,28.60
2008,08,05,17,18,28.60
2008,08,05,17,19,28.70